When you browse on this site, cookies collect data to enhance your experience and personalize the content and advertising you see.
Visit our Privacy Policy to learn more. By continuing to use the site, you agree to this use of cookies and data.
  • In Austria
  • List of Countries
  • For 7 days
  • Water Temperature
  • Satellite Maps
  • Weather Map
  • News
  • Weather Widgets
  • user-avatar
    Login

    Hourly Weather Orange Walk

    Today, 20 April, Saturday

    Time Temperature Precipitation Wind Pressure Humidity
    00:00 +24°C° 0 mm 2 mps 761 mmHg 90%
    01:00 +23°C° 0 mm 2 mps 761 mmHg 90%
    02:00 +22°C° 0 mm 1 mps 761 mmHg 90%
    03:00 +21°C° 0 mm 1 mps 761 mmHg 90%
    04:00 +21°C° 0 mm 1 mps 761 mmHg 90%
    05:00 +20°C° 0 mm 1 mps 761 mmHg 90%
    06:00 +20°C° 0 mm 1 mps 762 mmHg 89%
    07:00 +21°C° 0 mm 2 mps 762 mmHg 78%
    08:00 +24°C° 0 mm 2 mps 763 mmHg 66%
    09:00 +27°C° 0 mm 2 mps 763 mmHg 55%
    10:00 +29°C° 0 mm 2 mps 763 mmHg 48%
    11:00 +30°C° 0 mm 2 mps 762 mmHg 41%
    12:00 +32°C° 0 mm 2 mps 762 mmHg 34%
    13:00 +34°C° 0 mm 2 mps 761 mmHg 32%
    14:00 +33°C° 0 mm 1 mps 760 mmHg 29%
    15:00 +34°C° 0 mm 1 mps 759 mmHg 27%
    16:00 +32°C° 0 mm 1 mps 759 mmHg 35%
    17:00 +30°C° 0 mm 2 mps 759 mmHg 43%
    18:00 +28°C° 0 mm 2 mps 759 mmHg 51%
    19:00 +26°C° 0 mm 2 mps 760 mmHg 60%
    20:00 +25°C° 0 mm 1 mps 760 mmHg 70%
    21:00 +23°C° 0 mm 1 mps 761 mmHg 79%
    22:00 +23°C° 0 mm 1 mps 761 mmHg 82%
    23:00 +23°C° 0 mm 1 mps 761 mmHg 84%

    Tomorrow, 21 April, Sunday

    Time Temperature Precipitation Wind Pressure Humidity
    00:00 +23°C° 0 mm 1 mps 761 mmHg 86%
    01:00 +23°C° 0.1 mm 1 mps 761 mmHg 87%
    02:00 +23°C° 0.1 mm 1 mps 761 mmHg 88%
    03:00 +23°C° 0.1 mm 1 mps 760 mmHg 89%
    04:00 +23°C° 0 mm 1 mps 761 mmHg 91%
    05:00 +22°C° 0 mm 1 mps 761 mmHg 92%
    06:00 +22°C° 0 mm 1 mps 761 mmHg 94%
    07:00 +24°C° 0 mm 1 mps 761 mmHg 84%
    08:00 +26°C° 0 mm 2 mps 762 mmHg 73%
    09:00 +29°C° 0 mm 2 mps 762 mmHg 63%
    10:00 +30°C° 0 mm 2 mps 762 mmHg 59%
    11:00 +30°C° 0 mm 2 mps 762 mmHg 55%
    12:00 +31°C° 0 mm 2 mps 761 mmHg 52%
    13:00 +33°C° 0 mm 3 mps 761 mmHg 50%
    14:00 +33°C° 0 mm 3 mps 760 mmHg 48%
    15:00 +33°C° 0 mm 3 mps 759 mmHg 47%
    16:00 +30°C° 0 mm 3 mps 759 mmHg 53%
    17:00 +29°C° 0 mm 3 mps 759 mmHg 60%
    18:00 +27°C° 0 mm 2 mps 759 mmHg 66%
    19:00 +26°C° 0 mm 2 mps 760 mmHg 72%
    20:00 +25°C° 0 mm 1 mps 760 mmHg 77%
    21:00 +23°C° 0 mm 1 mps 761 mmHg 83%
    22:00 +23°C° 0 mm 1 mps 761 mmHg 85%
    23:00 +23°C° 0 mm 1 mps 761 mmHg 88%

    Day after tomorrow, 22 April, Monday

    Time Temperature Precipitation Wind Pressure Humidity
    00:00 +23°C° 0 mm 1 mps 761 mmHg 90%
    01:00 +23°C° 0 mm 1 mps 760 mmHg 92%
    02:00 +22°C° 0 mm 1 mps 760 mmHg 93%
    03:00 +20°C° 0 mm 0 mps 759 mmHg 94%
    04:00 +23°C° 0 mm 1 mps 759 mmHg 93%
    05:00 +23°C° 0 mm 1 mps 759 mmHg 92%
    06:00 +23°C° 0 mm 1 mps 759 mmHg 92%
    07:00 +25°C° 0.1 mm 2 mps 760 mmHg 86%
    08:00 +27°C° 0.1 mm 2 mps 760 mmHg 80%
    09:00 +29°C° 0.1 mm 3 mps 761 mmHg 75%
    10:00 +29°C° 0.2 mm 3 mps 760 mmHg 70%
    11:00 +30°C° 0.2 mm 3 mps 760 mmHg 66%
    12:00 +31°C° 0.2 mm 3 mps 760 mmHg 62%
    13:00 +31°C° 0.2 mm 3 mps 759 mmHg 62%
    14:00 +32°C° 0.2 mm 4 mps 758 mmHg 61%
    15:00 +33°C° 0.2 mm 4 mps 757 mmHg 61%
    16:00 +30°C° 0 mm 3 mps 758 mmHg 66%
    17:00 +29°C° 0 mm 3 mps 758 mmHg 71%
    18:00 +28°C° 0 mm 2 mps 758 mmHg 76%
    19:00 +27°C° 0 mm 2 mps 758 mmHg 81%
    20:00 +26°C° 0 mm 1 mps 759 mmHg 85%
    21:00 +25°C° 0 mm 1 mps 759 mmHg 90%
    22:00 +25°C° 0 mm 1 mps 759 mmHg 91%
    23:00 +25°C° 0 mm 1 mps 759 mmHg 92%

    23 April, Tuesday

    Time Temperature Precipitation Wind Pressure Humidity
    00:00 +25°C° 0 mm 1 mps 759 mmHg 93%
    01:00 +25°C° 0 mm 1 mps 758 mmHg 93%
    02:00 +25°C° 0 mm 1 mps 758 mmHg 94%
    03:00 +24°C° 0 mm 1 mps 758 mmHg 94%
    04:00 +24°C° 0 mm 1 mps 758 mmHg 94%
    05:00 +25°C° 0 mm 1 mps 758 mmHg 94%
    06:00 +25°C° 0 mm 1 mps 758 mmHg 94%
    07:00 +27°C° 0.1 mm 1 mps 759 mmHg 84%
    08:00 +29°C° 0.1 mm 2 mps 759 mmHg 73%
    09:00 +31°C° 0.1 mm 3 mps 759 mmHg 62%
    10:00 +33°C° 0.1 mm 3 mps 759 mmHg 59%
    11:00 +34°C° 0.1 mm 4 mps 759 mmHg 56%
    12:00 +34°C° 0.1 mm 4 mps 758 mmHg 52%
    13:00 +34°C° 0 mm 4 mps 758 mmHg 53%
    14:00 +34°C° 0 mm 4 mps 757 mmHg 53%
    15:00 +34°C° 0 mm 4 mps 756 mmHg 54%
    16:00 +31°C° 0 mm 3 mps 756 mmHg 60%
    17:00 +30°C° 0 mm 3 mps 757 mmHg 66%
    18:00 +28°C° 0 mm 2 mps 757 mmHg 72%
    19:00 +27°C° 0 mm 2 mps 757 mmHg 76%
    20:00 +26°C° 0 mm 2 mps 758 mmHg 80%
    21:00 +25°C° 0 mm 1 mps 758 mmHg 84%
    22:00 +25°C° 0 mm 1 mps 758 mmHg 86%
    23:00 +25°C° 0 mm 1 mps 758 mmHg 87%

    24 April, Wednesday

    Time Temperature Precipitation Wind Pressure Humidity
    00:00 +25°C° 0 mm 1 mps 758 mmHg 89%
    01:00 +24°C° 0 mm 1 mps 757 mmHg 91%
    02:00 +24°C° 0 mm 1 mps 757 mmHg 93%
    03:00 +24°C° 0 mm 1 mps 757 mmHg 95%
    04:00 +24°C° 0 mm 1 mps 757 mmHg 95%
    05:00 +24°C° 0 mm 1 mps 757 mmHg 94%
    06:00 +25°C° 0 mm 1 mps 757 mmHg 94%
    07:00 +27°C° 0.1 mm 2 mps 758 mmHg 85%
    08:00 +29°C° 0.1 mm 3 mps 758 mmHg 75%
    09:00 +31°C° 0.1 mm 3 mps 759 mmHg 65%
    10:00 +33°C° 0.1 mm 3 mps 758 mmHg 61%
    11:00 +33°C° 0.1 mm 4 mps 758 mmHg 57%
    12:00 +34°C° 0.1 mm 4 mps 757 mmHg 53%
    13:00 +34°C° 0 mm 4 mps 756 mmHg 54%
    14:00 +34°C° 0 mm 4 mps 756 mmHg 54%
    15:00 +34°C° 0 mm 4 mps 755 mmHg 55%
    16:00 +32°C° 0 mm 4 mps 755 mmHg 62%
    17:00 +30°C° 0 mm 3 mps 756 mmHg 69%
    18:00 +28°C° 0 mm 2 mps 756 mmHg 75%
    19:00 +27°C° 0 mm 2 mps 756 mmHg 80%
    20:00 +27°C° 0 mm 2 mps 757 mmHg 85%
    21:00 +26°C° 0 mm 1 mps 757 mmHg 90%
    22:00 +26°C° 0 mm 1 mps 757 mmHg 91%
    23:00 +25°C° 0 mm 1 mps 756 mmHg 92%

    25 April, Thursday

    Time Temperature Precipitation Wind Pressure Humidity
    00:00 +25°C° 0 mm 1 mps 756 mmHg 93%
    01:00 +25°C° 0 mm 1 mps 756 mmHg 94%
    02:00 +25°C° 0 mm 1 mps 756 mmHg 94%
    03:00 +25°C° 0 mm 1 mps 755 mmHg 95%
    04:00 +25°C° 0 mm 1 mps 756 mmHg 95%
    05:00 +25°C° 0 mm 1 mps 756 mmHg 94%
    06:00 +25°C° 0 mm 1 mps 756 mmHg 94%
    07:00 +27°C° 0 mm 2 mps 757 mmHg 84%
    08:00 +30°C° 0 mm 3 mps 757 mmHg 73%
    09:00 +33°C° 0 mm 3 mps 757 mmHg 63%
    10:00 +33°C° 0.1 mm 4 mps 757 mmHg 62%
    11:00 +34°C° 0.1 mm 4 mps 756 mmHg 61%
    12:00 +34°C° 0.1 mm 4 mps 756 mmHg 60%
    13:00 +34°C° 0 mm 3 mps 755 mmHg 60%
    14:00 +34°C° 0 mm 3 mps 755 mmHg 60%
    15:00 +34°C° 0 mm 3 mps 754 mmHg 59%
    16:00 +33°C° 0 mm 3 mps 754 mmHg 65%
    17:00 +31°C° 0 mm 3 mps 755 mmHg 70%
    18:00 +29°C° 0 mm 2 mps 755 mmHg 75%
    19:00 +28°C° 0 mm 2 mps 755 mmHg 80%
    20:00 +27°C° 0 mm 2 mps 756 mmHg 84%
    21:00 +26°C° 0 mm 1 mps 756 mmHg 89%
    22:00 +26°C° 0 mm 1 mps 756 mmHg 90%
    23:00 +26°C° 0 mm 1 mps 756 mmHg 92%
    Show more